Regional Weather Roundup
Issued by NWS

Home | Current Version | Previous Version | Graphics & Text | Print | Product List | Glossary Off
Versions: 1 2 3 4 5 6 7 8 9 10 11 12 13 14 15 16 17 18 19 20 21 22 23 24 25 26 27 28 29 30 31 32 33 34 35 36 37 38 39 40 41 42 43 44 45 46 47 48 49 50

000
ASUS43 KMKX 101500
RWRWI

WISCONSIN REGIONAL WEATHER ROUNDUP
NATIONAL WEATHER SERVICE MILWAUKEE/SULLIVAN WI
1000 AM CDT THU JUL 10 2014

NOTE: "FAIR" INDICATES FEW OR NO CLOUDS BELOW 12,000 FEET WITH NO
SIGNIFICANT WEATHER AND/OR OBSTRUCTIONS TO VISIBILITY.

WIZ001-002-006>008-014>016-023>028-101600-
NORTHWEST WISCONSIN

CITY           SKY/WX    TMP DP  RH WIND       PRES   REMARKS
SUPERIOR ARPT  SUNNY     64  56  75 NE3       30.06F
ASHLAND        MOSUNNY   71  58  63 S3        30.10S
HAYWARD        PTSUNNY   69  57  65 S8        30.10S
SIREN          SUNNY     72  58  61 S9        30.07F
RICE LAKE      SUNNY     68  57  68 SE6       30.11F
LADYSMITH      SUNNY     69  56  64 S9        30.14S
EAU CLAIRE     NOT AVBL
MENOMONIE      SUNNY     70  59  66 SE5       30.09F
NEW RICHMOND   SUNNY     70  58  66 S7        30.08S
OSCEOLA        SUNNY     70  62  74 S5        30.10S
$$

WIZ003>005-009-010-017-018-101600-
NORTH CENTRAL WISCONSIN

CITY           SKY/WX    TMP DP  RH WIND       PRES   REMARKS
WOODRUFF       SUNNY     68  54  60 S8        30.15R
RHINELANDER    SUNNY     67  52  58 SW9       30.16S
EAGLE RIVER    SUNNY     65  51  59 SW6       30.15S
LAND O LAKES   SUNNY     65  49  54 SW6       30.16R
PHILLIPS       SUNNY     67  55  64 S7        30.13S
TOMAHAWK       SUNNY     66  52  61 CALM      30.16S
MEDFORD        SUNNY     67  56  68 S7        30.14S
MERRILL        SUNNY     67  54  61 S6        30.15S
$$

WIZ029-030-035-036-043>047-101600-
CENTRAL WISCONSIN

CITY           SKY/WX    TMP DP  RH WIND       PRES   REMARKS
WAUSAU         SUNNY     69  53  56 S8        30.14S
MOSINEE        SUNNY     66  55  68 S9        30.16S
MARSHFIELD     SUNNY     69  57  65 S9        30.14S
STEVENS POINT  SUNNY     67  53  58 S6        30.16S
WAUPACA        SUNNY     71  56  58 S3        30.16S
WAUTOMA        NOT AVBL
WISC RAPIDS    SUNNY     72  54  53 S9        30.15F
CAMP DOUGLAS   NOT AVBL
$$

WIZ011>013-019>022-031-037>040-048>050-101600-
NORTHEAST WISCONSIN

CITY           SKY/WX    TMP DP  RH WIND       PRES   REMARKS
ANTIGO         SUNNY     65  53  65 S5        30.17S
STURGEON BAY   SUNNY     66  54  63 S6        30.18R
GREEN BAY      SUNNY     69  53  56 S8        30.16S
MANITOWOC      NOT AVBL
APPLETON       SUNNY     70  48  46 VRB5      30.17R
CLINTONVILLE   SUNNY     70  52  52 S5        30.15S
OSHKOSH        SUNNY     71  54  54 S5        30.16S
$$

WIZ032>034-041-042-053>061-101600-
SOUTHWEST WISCONSIN

CITY           SKY/WX    TMP DP  RH WIND       PRES   REMARKS
LA CROSSE      SUNNY     73  58  59 S13       30.10S
SPARTA         MOSUNNY   71  54  53 S9        30.12F
VIROQUA        FAIR      69  57  64 S10       30.14S
BOSCOBEL       MOSUNNY   76  59  55 SW7       30.14S
PRAIRIE DU CHI MOSUNNY   71  58  63 CALM      30.13R
PLATTEVILLE    FAIR      71  59  64 S9        30.17R
$$

WIZ056-057-062-063-064-067-068-101600-
SOUTH CENTRAL WISCONSIN

CITY           SKY/WX    TMP DP  RH WIND       PRES   REMARKS
BARABOO/DELLS  PTSUNNY   72  54  53 SW7       30.15S
LONE ROCK      NOT AVBL
WATERTOWN      SUNNY     70  56  62 SW3       30.16S
MADISON        MOSUNNY   72  55  55 S7        30.16S
MIDDLETON      FAIR      73  51  46 S7        30.17S
MONROE         PTSUNNY   70  55  60 S8        30.16S
JANESVILLE     MOSUNNY   73  54  49 VRB6      30.16S
$$

WIZ051-052-058>065-066-070>072-101600-
SOUTHEAST WISCONSIN

CITY           SKY/WX    TMP DP  RH WIND       PRES   REMARKS
MILWAUKEE      MOSUNNY   68  58  70 SE7       30.18R
WAUKESHA       SUNNY     70  52  52 S3        30.18S
MILWAUKEE/TIMM SUNNY     70  55  60 CALM      30.18S
RACINE         SUNNY     68  57  68 SE7       30.20R
BURLINGTON     SUNNY     69  55  60 S3        30.17S
KENOSHA        SUNNY     69  58  67 E6        30.18R
FOND DU LAC    SUNNY     71  52  50 VRB6      30.17R
SHEBOYGAN      SUNNY     66  58  75 S6        30.18R
WEST BEND      SUNNY     68  52  56 S3        30.17S
JUNEAU         SUNNY     69  39  33 S5        30.18S
$$

LSZ147-162-101600-
LAKE SUPERIOR

STATION/POSITION TIME  TEMP    WIND        PRES    WAVE
                       AIR SEA DIR/SP/G            HT/PER
                 (UTC) (F)     (DEG/KT/KT) (MB)    (FT/S)
W MID LAKE BUOY  1350   43 38  130/  4/  6 1019.9R   0
DEVILS ISLAND    1400   63     100/  1/  3 1019.0S
PORT WING        1400   61      40/  5/  6 1018.6S
SAXON HARBOR     1400          180/  3/ 12 1019.0S
$$

LMZ867-665-643>646-101600-
LAKE MICHIGAN

STATION/POSITION TIME  TEMP    WIND        PRES    WAVE
                       AIR SEA DIR/SP/G            HT/PER
                 (UTC) (F)     (DEG/KT/KT) (MB)    (FT/S)
N MID LAKE BUOY  1350   56 54  190/  6/  6 1021.5R   0
NORTHPORT PIER   1400   62     140/  8/  9 1021.3S
SISTER BAY       1310   68     190/  6/  8   N/A
KEWAUNEE LAKESHO 1400   50     160/  4/  4 1022.3R
SHEBOYGAN LAKESH 1400   58     130/  4/  4 1022.1R
PORT WASHINGTON  1440   58     110/  1/  2 1022.4R
MILWAUKEE LAKESH 1400   58      40/  4/  5   N/A
S MID LAKE BUOY  1350   57 56   60/  6/  6 1021.7R   0
KENOSHA   LAKESH 1400   60      CALM  /  2   N/A
$$

TC  - TEMPERATURE IN CELSIUS
VSB - VISIBILITY IN STATUTE MILES
WCI - WIND CHILL INDEX
HX  - HEAT INDEX



USA.gov is the U.S. government's official web portal to all federal, state and local government web resources and services.